Simultaneous Nadir Overpasses (SNOs) Predictions

Prediction of SNOs between NOAA-20 and METOP-C Satellite Orbit:

Table of predicted SNOs for the next 14.0 days since TLE Epoch: 11/20/2021
Index Date (NOAA-20) Time (NOAA-20) Lat,Lon (NOAA-20) SZA (NOAA-20 ) Date (METOP-C) Time (METOP-C) Lat,Lon (METOP-C) SZA (METOP-C ) Distance(km) Time Diff (sec)
1 12/01/2021 07:36:30 73.36, 56.24 95.23 12/01/2021 07:37:36 73.33, 59.02 95.12 88.77 66
2 12/01/2021 08:27:12 -73.26,-136.21 84.88 12/01/2021 08:28:20 -73.20,-133.93 85.00 73.35 68
3 12/01/2021 09:17:54 73.07, 31.51 94.93 12/01/2021 09:19:04 73.01, 32.98 94.83 47.96 70
4 12/01/2021 10:08:36 -72.97,-160.95 85.18 12/01/2021 10:09:47 -72.93,-159.86 85.25 35.65 71
5 12/01/2021 10:59:18 72.77, 6.77 94.63 12/01/2021 11:00:31 72.74, 7.06 94.57 10.63 73
6 12/01/2021 11:50:00 -72.67, 174.30 85.48 12/01/2021 11:51:14 -72.66, 174.23 85.50 2.60 74
7 12/01/2021 12:40:46 72.68, -18.41 94.54 12/01/2021 12:41:54 72.66, -18.42 94.52 1.92 68
8 12/01/2021 13:31:30 -72.68, 148.91 85.46 12/01/2021 13:32:35 -72.69, 148.95 85.46 1.89 65
9 12/01/2021 14:22:16 72.69, -43.80 94.56 12/01/2021 14:23:15 72.69, -43.70 94.56 3.43 59
10 12/01/2021 15:13:00 -72.69, 123.52 85.44 12/01/2021 15:13:57 -72.67, 123.57 85.47 2.77 57
11 12/01/2021 16:03:45 72.65, -69.09 94.53 12/01/2021 16:04:37 72.67, -69.08 94.55 3.10 52
12 12/01/2021 16:54:29 -72.64, 98.23 85.48 12/01/2021 16:55:19 -72.65, 98.19 85.48 1.37 50
13 12/01/2021 17:45:15 72.65, -94.48 94.55 12/01/2021 17:45:59 72.65, -94.46 94.54 0.52 44
14 12/01/2021 18:35:59 -72.65, 72.84 85.46 12/01/2021 18:36:41 -72.63, 72.81 85.48 2.96 42
15 12/01/2021 19:26:45 72.66,-119.87 94.57 12/01/2021 19:27:21 72.63,-119.85 94.53 3.35 36
16 12/01/2021 20:17:29 -72.66, 47.45 85.44 12/01/2021 20:18:02 -72.66, 47.53 85.45 2.74 33
17 12/01/2021 21:08:14 72.62,-145.16 94.53 12/01/2021 21:08:43 72.61,-145.23 94.52 2.45 29
18 12/01/2021 21:58:58 -72.62, 22.16 85.47 12/01/2021 21:59:24 -72.64, 22.15 85.45 2.20 26
19 12/01/2021 22:49:44 72.63,-170.55 94.55 12/01/2021 22:50:04 72.64,-170.51 94.56 2.24 20
20 12/01/2021 23:40:28 -72.63, -3.23 85.45 12/01/2021 23:40:46 -72.62, -3.23 85.46 1.02 18
21 12/02/2021 00:31:14 72.64, 164.06 94.57 12/02/2021 00:31:26 72.62, 164.11 94.55 2.26 12
22 12/02/2021 01:21:57 -72.58, -28.52 85.49 12/02/2021 01:22:08 -72.60, -28.61 85.47 3.57 11
23 12/02/2021 02:12:43 72.59, 138.77 94.54 12/02/2021 02:12:48 72.60, 138.73 94.54 1.74 5
24 12/02/2021 03:03:27 -72.59, -53.91 85.47 12/02/2021 03:03:30 -72.58, -53.99 85.48 3.43 3
25 12/02/2021 03:54:13 72.60, 113.38 94.55 12/02/2021 03:54:10 72.58, 113.35 94.54 2.41 3
26 12/02/2021 04:44:57 -72.60, -79.30 85.45 12/02/2021 04:44:51 -72.61, -79.27 85.44 1.08 6
27 12/02/2021 05:35:43 72.61, 87.99 94.57 12/02/2021 05:35:31 72.61, 88.07 94.58 2.68 12
28 12/02/2021 06:26:27 -72.61,-104.69 85.43 12/02/2021 06:26:13 -72.59,-104.65 85.45 2.65 14
29 12/02/2021 07:17:12 72.57, 62.71 94.54 12/02/2021 07:16:53 72.59, 62.69 94.57 2.87 19
30 12/02/2021 08:07:56 -72.56,-129.97 85.46 12/02/2021 08:07:35 -72.57,-130.04 85.46 2.05 21
31 12/02/2021 08:58:42 72.58, 37.32 94.56 12/02/2021 08:58:15 72.57, 37.31 94.56 0.38 27
32 12/02/2021 09:49:26 -72.57,-155.36 85.44 12/02/2021 09:48:56 -72.60,-155.31 85.42 3.03 30
33 12/02/2021 10:40:12 72.58, 11.92 94.58 12/02/2021 10:39:37 72.55, 11.93 94.55 3.53 35
34 12/02/2021 11:30:56 -72.58, 179.24 85.43 12/02/2021 11:30:18 -72.58, 179.30 85.43 2.09 38
35 12/02/2021 12:21:41 72.54, -13.36 94.54 12/02/2021 12:20:59 72.53, -13.45 94.54 3.16 42
36 12/02/2021 13:12:25 -72.54, 153.96 85.46 12/02/2021 13:11:40 -72.55, 153.92 85.44 2.14 45
37 12/02/2021 14:03:11 72.55, -38.75 94.56 12/02/2021 14:02:20 72.56, -38.73 94.58 1.64 51
38 12/02/2021 14:53:55 -72.55, 128.57 85.44 12/02/2021 14:53:02 -72.53, 128.54 85.45 1.60 53
39 12/02/2021 15:44:41 72.56, -64.14 94.58 12/02/2021 15:43:42 72.54, -64.11 94.57 2.05 59
40 12/02/2021 16:35:25 -72.55, 103.18 85.42 12/02/2021 16:34:23 -72.56, 103.26 85.41 3.11 62
41 12/02/2021 17:26:10 72.51, -89.43 94.55 12/02/2021 17:25:04 72.52, -89.49 94.56 2.17 66
42 12/02/2021 18:16:54 -72.51, 77.89 85.46 12/02/2021 18:15:45 -72.54, 77.88 85.42 3.57 69
43 12/02/2021 19:07:40 72.52,-114.82 94.56 12/02/2021 19:06:26 72.50,-114.87 94.55 2.98 74
44 12/02/2021 19:58:23 -72.47, 52.60 85.49 12/02/2021 19:57:08 -72.47, 52.40 85.47 6.76 75
45 12/02/2021 20:49:03 72.22,-139.60 94.26 12/02/2021 20:47:52 72.22,-140.76 94.30 39.19 71
46 12/02/2021 21:39:46 -72.17, 27.81 85.79 12/02/2021 21:38:35 -72.15, 26.42 85.77 47.61 71
47 12/02/2021 22:30:27 71.92,-164.41 93.96 12/02/2021 22:29:19 71.95,-166.63 94.05 76.72 68
48 12/02/2021 23:21:10 -71.87, 3.01 86.09 12/02/2021 23:20:02 -71.87, 0.55 86.02 84.88 68



Historial Predications of SNOs between NOAA-20 and METOP-C
